AEE275 LGHI-LGAV

Flight info

Callsign AEE275
Flight time 0h 30m
Altitude 16000
Route PANOX G802 SOSIR G8 OGSIL
Aircraft A320/M-SDE3FGHIRWY/LB1

Departure

Time 2026-04-22 12:54
Airport Chios Island National Airport (LGHI)

Arrival

Time 2026-04-22 13:25
Airport Athens Eleftherios Venizelos International Airport (LGAV)
Time Latitude Longitude Altitude Speed Heading
2026-04-22 12:27 38.34399 26.14213 17 ft 0 kts 298°
2026-04-22 12:50 38.34401 26.14208 17 ft 4 kts 302°
2026-04-22 12:50 38.34469 26.14195 17 ft 13 kts
2026-04-22 12:51 38.34551 26.14138 17 ft 15 kts 322°
2026-04-22 12:51 38.34660 26.14126 18 ft 17 kts
2026-04-22 12:51 38.34786 26.14152 18 ft 20 kts
2026-04-22 12:51 38.34932 26.14184 19 ft 21 kts 10°
2026-04-22 12:52 38.35028 26.14212 19 ft 12 kts 314°
2026-04-22 12:52 38.35009 26.14194 18 ft 5 kts 167°
2026-04-22 12:52 38.34971 26.14192 18 ft 2 kts 189°
2026-04-22 12:54 38.34926 26.14182 19 ft 37 kts 189°
2026-04-22 12:54 38.34350 26.14059 17 ft 126 kts 189°
2026-04-22 12:54 38.33309 26.13830 402 ft 162 kts 192°
2026-04-22 12:54 38.32178 26.13526 1305 ft 170 kts 195°
2026-04-22 12:55 38.31405 26.13289 1943 ft 176 kts 197°
2026-04-22 12:55 38.29744 26.12754 2582 ft 198 kts 202°
2026-04-22 12:55 38.28646 26.11657 3084 ft 209 kts 245°
2026-04-22 12:55 38.28262 26.09879 3922 ft 209 kts 260°
2026-04-22 12:56 38.27993 26.08047 4782 ft 212 kts 260°
2026-04-22 12:56 38.27719 26.06199 5655 ft 214 kts 259°
2026-04-22 12:56 38.27433 26.04330 6560 ft 215 kts 259°
2026-04-22 12:56 38.27135 26.02456 7407 ft 216 kts 259°
2026-04-22 12:57 38.26829 26.00572 8289 ft 218 kts 259°
2026-04-22 12:57 38.26544 25.98643 8971 ft 231 kts 262°
2026-04-22 12:57 38.26338 25.96509 9369 ft 255 kts 264°
2026-04-22 12:57 38.26160 25.94203 10004 ft 266 kts 265°
2026-04-22 12:58 38.25984 25.91761 10384 ft 289 kts 265°
2026-04-22 12:58 38.25794 25.89139 10840 ft 304 kts 265°
2026-04-22 12:58 38.25593 25.86445 11573 ft 308 kts 265°
2026-04-22 12:58 38.25383 25.83715 12365 ft 311 kts 265°
2026-04-22 12:59 38.25168 25.80961 13154 ft 314 kts 265°
2026-04-22 12:59 38.24950 25.78188 13922 ft 317 kts 265°
2026-04-22 12:59 38.24729 25.75391 14617 ft 319 kts 265°
2026-04-22 12:59 38.24504 25.72572 15296 ft 321 kts 265°
2026-04-22 13:00 38.24275 25.69737 15799 ft 324 kts 265°
2026-04-22 13:00 38.24044 25.66891 15936 ft 322 kts 265°
2026-04-22 13:00 38.23817 25.64088 15957 ft 316 kts 265°
2026-04-22 13:00 38.23594 25.61318 15974 ft 314 kts 265°
2026-04-22 13:01 38.23368 25.58552 15969 ft 314 kts 265°
2026-04-22 13:01 38.23218 25.56727 15974 ft 314 kts 265°
2026-04-22 13:01 38.22991 25.53964 15971 ft 314 kts 265°
2026-04-22 13:01 38.22764 25.51204 15970 ft 314 kts 265°
2026-04-22 13:02 38.22462 25.47515 15968 ft 313 kts 265°
2026-04-22 13:02 38.22313 25.45692 15971 ft 313 kts 265°
2026-04-22 13:02 38.22099 25.43084 15973 ft 313 kts 265°
2026-04-22 13:02 38.21872 25.40328 15972 ft 313 kts 265°
2026-04-22 13:03 38.21645 25.37573 15982 ft 314 kts 265°
2026-04-22 13:03 38.21415 25.34816 15983 ft 314 kts 265°
2026-04-22 13:03 38.21183 25.32055 15983 ft 314 kts 265°
2026-04-22 13:03 38.20950 25.29296 15986 ft 314 kts 265°
2026-04-22 13:04 38.20717 25.26533 15990 ft 314 kts 265°
2026-04-22 13:04 38.20486 25.23769 15988 ft 314 kts 265°
2026-04-22 13:04 38.20255 25.21007 15990 ft 315 kts 265°
2026-04-22 13:04 38.20022 25.18242 15994 ft 315 kts 265°
2026-04-22 13:05 38.19787 25.15472 15995 ft 315 kts 265°
2026-04-22 13:05 38.19550 25.12707 15998 ft 315 kts 265°
2026-04-22 13:05 38.19310 25.09943 16000 ft 315 kts 265°
2026-04-22 13:05 38.19070 25.07174 15998 ft 315 kts 265°
2026-04-22 13:06 38.18830 25.04408 15997 ft 315 kts 265°
2026-04-22 13:06 38.18590 25.01610 15997 ft 315 kts 265°
2026-04-22 13:06 38.18357 24.98880 15999 ft 315 kts 265°
2026-04-22 13:06 38.18120 24.96114 16002 ft 314 kts 265°
2026-04-22 13:07 38.17706 24.93338 15982 ft 322 kts 251°
2026-04-22 13:07 38.16545 24.90865 15981 ft 330 kts 237°
2026-04-22 13:07 38.15143 24.88594 15978 ft 331 kts 236°
2026-04-22 13:07 38.13704 24.86303 15980 ft 332 kts 235°
2026-04-22 13:08 38.12264 24.84014 15980 ft 332 kts 235°
2026-04-22 13:08 38.10803 24.81694 15976 ft 331 kts 235°
2026-04-22 13:08 38.09366 24.79414 15976 ft 332 kts 235°
2026-04-22 13:08 38.07956 24.77177 15978 ft 332 kts 235°
2026-04-22 13:09 38.06500 24.74869 15980 ft 332 kts 235°
2026-04-22 13:09 38.05040 24.72554 15977 ft 332 kts 235°
2026-04-22 13:09 38.03597 24.70267 15978 ft 332 kts 235°
2026-04-22 13:09 38.02153 24.67979 15982 ft 332 kts 235°
2026-04-22 13:10 38.00706 24.65690 15983 ft 333 kts 235°
2026-04-22 13:10 37.99260 24.63405 15981 ft 333 kts 235°
2026-04-22 13:10 37.97811 24.61114 15986 ft 333 kts 235°
2026-04-22 13:10 37.96363 24.58824 15988 ft 333 kts 235°
2026-04-22 13:11 37.94995 24.56467 15988 ft 330 kts 243°
2026-04-22 13:11 37.93885 24.53930 15992 ft 329 kts 245°
2026-04-22 13:11 37.92814 24.51386 15958 ft 322 kts 245°
2026-04-22 13:11 37.91776 24.48924 15713 ft 313 kts 245°
2026-04-22 13:12 37.90763 24.46528 15459 ft 305 kts 245°
2026-04-22 13:12 37.89775 24.44192 15209 ft 298 kts 245°
2026-04-22 13:12 37.88819 24.41933 14970 ft 292 kts 245°
2026-04-22 13:12 37.87868 24.39686 14727 ft 287 kts 245°
2026-04-22 13:13 37.86928 24.37467 14442 ft 286 kts 245°
2026-04-22 13:13 37.85992 24.35249 14066 ft 286 kts 245°
2026-04-22 13:13 37.85053 24.33019 13641 ft 288 kts 245°
2026-04-22 13:13 37.84113 24.30779 13198 ft 288 kts 245°
2026-04-22 13:14 37.83174 24.28542 12752 ft 289 kts 245°
2026-04-22 13:14 37.82228 24.26296 12312 ft 289 kts 245°
2026-04-22 13:14 37.81279 24.24051 11879 ft 289 kts 245°
2026-04-22 13:14 37.80345 24.21851 11451 ft 279 kts 245°
2026-04-22 13:15 37.79438 24.19728 11029 ft 271 kts 245°
2026-04-22 13:15 37.78546 24.17643 10615 ft 269 kts 245°
2026-04-22 13:15 37.77656 24.15574 10198 ft 267 kts 245°
2026-04-22 13:15 37.76762 24.13494 9801 ft 270 kts 245°
2026-04-22 13:16 37.75869 24.11407 9342 ft 267 kts 245°
2026-04-22 13:16 37.75004 24.09380 8888 ft 258 kts 245°
2026-04-22 13:16 37.74162 24.07388 8323 ft 256 kts 245°
2026-04-22 13:16 37.73339 24.05411 7770 ft 253 kts 245°
2026-04-22 13:17 37.72528 24.03445 7229 ft 251 kts 245°
2026-04-22 13:17 37.71910 24.01420 6696 ft 245 kts 265°
2026-04-22 13:17 37.71921 23.99310 6333 ft 237 kts 274°
2026-04-22 13:17 37.72052 23.97272 6007 ft 229 kts 275°
2026-04-22 13:18 37.72194 23.95305 5678 ft 221 kts 275°
2026-04-22 13:18 37.72335 23.93403 5340 ft 214 kts 275°
2026-04-22 13:18 37.72473 23.91563 5025 ft 208 kts 275°
2026-04-22 13:18 37.72609 23.89748 4699 ft 207 kts 275°
2026-04-22 13:19 37.72742 23.87951 4369 ft 203 kts 275°
2026-04-22 13:19 37.72873 23.86194 4036 ft 199 kts 276°
2026-04-22 13:19 37.73326 23.84575 3700 ft 197 kts 310°
2026-04-22 13:19 37.74462 23.83645 3405 ft 198 kts 346°
2026-04-22 13:20 37.75830 23.83357 3103 ft 199 kts 354°
2026-04-22 13:20 37.77178 23.83187 2991 ft 193 kts 355°
2026-04-22 13:20 37.78513 23.83025 3002 ft 192 kts 355°
2026-04-22 13:20 37.79843 23.83012 2998 ft 191 kts 11°
2026-04-22 13:21 37.81065 23.83623 2992 ft 190 kts 35°
2026-04-22 13:21 37.82100 23.84589 2832 ft 181 kts 38°
2026-04-22 13:21 37.83088 23.85528 2628 ft 175 kts 38°
2026-04-22 13:21 37.84052 23.86443 2411 ft 171 kts 38°
2026-04-22 13:22 37.84993 23.87336 2202 ft 165 kts 39°
2026-04-22 13:22 37.85878 23.88174 1975 ft 153 kts 38°
2026-04-22 13:22 37.86693 23.88946 1787 ft 140 kts 40°
2026-04-22 13:22 37.87459 23.89673 1604 ft 136 kts 40°
2026-04-22 13:23 37.88210 23.90386 1421 ft 135 kts 40°
2026-04-22 13:23 37.88956 23.91094 1229 ft 134 kts 39°
2026-04-22 13:23 37.89698 23.91799 1042 ft 132 kts 39°
2026-04-22 13:23 37.90433 23.92497 845 ft 132 kts 40°
2026-04-22 13:24 37.91163 23.93192 667 ft 132 kts 40°
2026-04-22 13:24 37.91890 23.93885 483 ft 130 kts 42°
2026-04-22 13:24 37.92608 23.94571 328 ft 130 kts 39°
2026-04-22 13:24 37.93274 23.95203 294 ft 102 kts 37°
2026-04-22 13:25 37.93696 23.95606 294 ft 44 kts 37°
2026-04-22 13:25 37.93921 23.95718 298 ft 29 kts
2026-04-22 13:25 37.94006 23.95732 297 ft 1 kts
2026-04-22 13:25 37.94010 23.95732 298 ft 0 kts
2026-04-22 13:26 37.94015 23.95731 301 ft 2 kts 348°
2026-04-22 13:26 37.94047 23.95693 300 ft 10 kts 308°
2026-04-22 13:26 37.94096 23.95612 301 ft 12 kts 303°
2026-04-22 13:26 37.94065 23.95529 300 ft 11 kts 215°
2026-04-22 13:27 37.94027 23.95494 299 ft 1 kts 217°
2026-04-22 13:27 37.94009 23.95477 297 ft 5 kts 217°
2026-04-22 13:27 37.93972 23.95442 299 ft 7 kts 217°
2026-04-22 13:27 37.93944 23.95415 299 ft 0 kts 217°
2026-04-22 13:28 37.93919 23.95391 295 ft 15 kts 220°
2026-04-22 13:28 37.93931 23.95277 296 ft 6 kts 304°
2026-04-22 13:28 37.93956 23.95291 296 ft 5 kts 40°
2026-04-22 13:29 37.93991 23.95323 298 ft 7 kts 37°
2026-04-22 13:29 37.94000 23.95332 298 ft 0 kts 37°